| time (UTC) | temp F | wind direction | speed knots | gust knots | rain 1hr in | rain 24hr in | rain mn in | humidity % | barometer mb |
| 20260507181016 | 54 | 216 | 7.8 | 8.7 | 0.00 | 0.30 | 0.00 | 82 | 1014.3 |
| 20260507180512 | 54 | 179 | 2.6 | 4.3 | 0.00 | 0.30 | 0.00 | 82 | 1014.3 |
| 20260507180010 | 54 | 218 | 1.7 | 6.1 | 0.00 | 0.30 | 0.00 | 81 | 1014.3 |
| 20260507175513 | 54 | 192 | 5.2 | 6.1 | 0.00 | 0.30 | 0.00 | 80 | 1014.3 |
| 20260507175016 | 54 | 218 | 3.5 | 6.1 | 0.00 | 0.30 | 0.00 | 79 | 1014.2 |
| 20260507174513 | 54 | 199 | 2.6 | 7.0 | 0.00 | 0.30 | 0.00 | 79 | 1014.1 |
| 20260507174010 | 55 | 181 | 5.2 | 7.8 | 0.00 | 0.30 | 0.00 | 78 | 1014.0 |
| 20260507173515 | 55 | 218 | 3.5 | 9.6 | 0.00 | 0.30 | 0.00 | 78 | 1013.9 |
| 20260507173010 | 55 | 208 | 5.2 | 7.0 | 0.00 | 0.30 | 0.00 | 78 | 1013.8 |
| 20260507172513 | 55 | 111 | 2.6 | 6.1 | 0.00 | 0.30 | 0.00 | 78 | 1013.9 |
| 20260507172010 | 55 | 206 | 3.5 | 7.8 | 0.00 | 0.30 | 0.00 | 77 | 1013.8 |
| 20260507171519 | 56 | 191 | 3.5 | 9.6 | 0.00 | 0.30 | 0.00 | 77 | 1013.7 |
| 20260507171016 | 56 | 192 | 6.1 | 8.7 | 0.00 | 0.30 | 0.00 | 77 | 1013.6 |
| 20260507170512 | 56 | 205 | 6.1 | 9.6 | 0.00 | 0.30 | 0.00 | 77 | 1013.6 |
| 20260507170010 | 56 | 208 | 7.0 | 9.6 | 0.00 | 0.30 | 0.00 | 77 | 1013.6 |
| 20260507165510 | 56 | 214 | 7.0 | 7.8 | 0.00 | 0.30 | 0.00 | 76 | 1013.6 |
| 20260507165016 | 56 | 172 | 7.0 | 11.3 | 0.00 | 0.30 | 0.00 | 75 | 1013.6 |
| 20260507164510 | 57 | 200 | 8.7 | 13.9 | 0.00 | 0.30 | 0.00 | 74 | 1013.5 |
| 20260507164010 | 57 | 203 | 5.2 | 10.4 | 0.00 | 0.30 | 0.00 | 73 | 1013.5 |
| 20260507163512 | 57 | 191 | 5.2 | 9.6 | 0.00 | 0.30 | 0.00 | 73 | 1013.5 |
| 20260507163010 | 57 | 196 | 8.7 | 14.8 | 0.00 | 0.30 | 0.00 | 73 | 1013.4 |
| 20260507162510 | 57 | 208 | 10.4 | 16.5 | 0.00 | 0.30 | 0.00 | 71 | 1013.4 |
| 20260507162010 | 57 | 218 | 10.4 | 14.8 | 0.00 | 0.30 | 0.00 | 69 | 1013.3 |
| 20260507161513 | 57 | 215 | 7.8 | 13.0 | 0.00 | 0.30 | 0.00 | 68 | 1013.3 |
| 20260507161019 | 57 | 203 | 10.4 | 13.0 | 0.00 | 0.30 | 0.00 | 68 | 1013.3 |
| 20260507160521 | 57 | 213 | 6.1 | 9.6 | 0.00 | 0.30 | 0.00 | 69 | 1013.3 |
| 20260507160016 | 57 | 213 | 5.2 | 12.2 | 0.00 | 0.30 | 0.00 | 68 | 1013.3 |
| 20260507155510 | 57 | 195 | 3.5 | 13.9 | 0.00 | 0.30 | 0.00 | 68 | 1013.2 |
| 20260507155010 | 57 | 204 | 7.8 | 15.6 | 0.00 | 0.30 | 0.00 | 67 | 1013.2 |
| 20260507154510 | 58 | 182 | 6.1 | 15.6 | 0.00 | 0.30 | 0.00 | 67 | 1013.1 |
| 20260507154013 | 58 | 225 | 4.3 | 13.9 | 0.00 | 0.30 | 0.00 | 68 | 1013.1 |
| 20260507153512 | 59 | 209 | 7.8 | 11.3 | 0.00 | 0.30 | 0.00 | 67 | 1013.0 |
| 20260507153010 | 59 | 174 | 0.9 | 7.0 | 0.00 | 0.31 | 0.00 | 67 | 1013.0 |
| 20260507152510 | 59 | 185 | 6.1 | 10.4 | 0.00 | 0.31 | 0.00 | 67 | 1013.0 |
| 20260507152010 | 59 | 147 | 3.5 | 8.7 | 0.00 | 0.31 | 0.00 | 67 | 1012.9 |
| 20260507151513 | 58 | 117 | 5.2 | 13.9 | 0.00 | 0.31 | 0.00 | 68 | 1012.9 |
| 20260507151010 | 58 | 187 | 7.0 | 12.2 | 0.00 | 0.32 | 0.00 | 68 | 1012.8 |
| 20260507150518 | 59 | 208 | 11.3 | 14.8 | 0.00 | 0.32 | 0.00 | 66 | 1012.8 |
| 20260507150016 | 60 | 195 | 5.2 | 12.2 | 0.00 | 0.32 | 0.00 | 66 | 1012.7 |
| 20260507145513 | 60 | 234 | 2.6 | 16.5 | 0.00 | 0.32 | 0.00 | 64 | 1012.7 |
| 20260507145013 | 60 | 143 | 6.1 | 8.7 | 0.00 | 0.32 | 0.00 | 64 | 1012.7 |
| 20260507144513 | 60 | 213 | 7.0 | 10.4 | 0.00 | 0.32 | 0.00 | 64 | 1012.6 |
| 20260507144010 | 60 | 134 | 7.0 | 10.4 | 0.00 | 0.32 | 0.00 | 64 | 1012.6 |
| 20260507143512 | 60 | 214 | 5.2 | 8.7 | 0.00 | 0.32 | 0.00 | 63 | 1012.6 |
| 20260507143010 | 60 | 164 | 3.5 | 15.6 | 0.00 | 0.32 | 0.00 | 63 | 1012.5 |
| 20260507142519 | 60 | 196 | 5.2 | 12.2 | 0.00 | 0.32 | 0.00 | 62 | 1012.5 |
| 20260507142010 | 61 | 185 | 5.2 | 13.0 | 0.00 | 0.32 | 0.00 | 61 | 1012.5 |
| 20260507141510 | 61 | 115 | 5.2 | 12.2 | 0.00 | 0.32 | 0.00 | 60 | 1012.4 |
| 20260507141013 | 61 | 160 | 6.1 | 13.0 | 0.00 | 0.32 | 0.00 | 61 | 1012.3 |
| 20260507140512 | 61 | 168 | 6.1 | 10.4 | 0.00 | 0.32 | 0.00 | 61 | 1012.3 |
| 20260507140010 | 60 | 170 | 7.8 | 12.2 | 0.00 | 0.32 | 0.00 | 61 | 1012.4 |
| 20260507135510 | 60 | 119 | 7.0 | 11.3 | 0.00 | 0.32 | 0.00 | 61 | 1012.3 |
| 20260507135010 | 60 | 157 | 7.0 | 14.8 | 0.00 | 0.32 | 0.00 | 61 | 1012.4 |
| 20260507134511 | 61 | 129 | 7.0 | 13.9 | 0.00 | 0.32 | 0.00 | 62 | 1012.4 |
| 20260507134013 | 60 | 144 | 9.6 | 14.8 | 0.00 | 0.32 | 0.00 | 62 | 1012.5 |
| 20260507133510 | 60 | 154 | 13.9 | 13.9 | 0.00 | 0.32 | 0.00 | 61 | 1012.4 |
| 20260507133010 | 60 | 164 | 10.4 | 13.0 | 0.00 | 0.32 | 0.00 | 61 | 1012.4 |
| 20260507132513 | 61 | 120 | 7.0 | 15.6 | 0.00 | 0.32 | 0.00 | 61 | 1012.4 |
| 20260507132010 | 61 | 158 | 7.0 | 12.2 | 0.00 | 0.32 | 0.00 | 61 | 1012.3 |
| 20260507131512 | 60 | 117 | 9.6 | 14.8 | 0.00 | 0.32 | 0.00 | 62 | 1012.3 |
| 20260507131010 | 60 | 144 | 13.0 | 13.9 | 0.00 | 0.32 | 0.00 | 62 | 1012.3 |
| 20260507130516 | 60 | 131 | 5.2 | 13.9 | 0.00 | 0.32 | 0.00 | 62 | 1012.3 |
| 20260507130013 | 60 | 143 | 5.2 | 13.9 | 0.00 | 0.32 | 0.00 | 61 | 1012.3 |
| 20260507125519 | 60 | 106 | 4.3 | 17.4 | 0.00 | 0.32 | 0.00 | 62 | 1012.3 |
| 20260507125011 | 60 | 127 | 13.0 | 13.0 | 0.00 | 0.32 | 0.00 | 63 | 1012.2 |
| 20260507124512 | 59 | 147 | 2.6 | 13.0 | 0.00 | 0.32 | 0.00 | 62 | 1012.3 |
| 20260507124019 | 59 | 153 | 11.3 | 11.3 | 0.00 | 0.32 | 0.00 | 63 | 1012.2 |
| 20260507123513 | 59 | 151 | 7.0 | 13.9 | 0.00 | 0.32 | 0.00 | 63 | 1012.2 |
| 20260507123010 | 59 | 100 | 8.7 | 15.6 | 0.00 | 0.32 | 0.00 | 63 | 1012.2 |
| 20260507122510 | 59 | 98 | 7.8 | 12.2 | 0.00 | 0.32 | 0.00 | 62 | 1012.2 |
| 20260507122010 | 59 | 162 | 2.6 | 13.9 | 0.00 | 0.32 | 0.00 | 63 | 1012.3 |
| 20260507121515 | 59 | 158 | 7.0 | 13.9 | 0.00 | 0.32 | 0.00 | 63 | 1012.2 |
| 20260507121010 | 59 | 164 | 7.8 | 11.3 | 0.00 | 0.32 | 0.00 | 64 | 1012.2 |
| 20260507120510 | 59 | 143 | 7.0 | 11.3 | 0.00 | 0.32 | 0.00 | 65 | 1012.1 |
| 20260507120010 | 58 | 176 | 7.8 | 10.4 | 0.00 | 0.32 | 0.00 | 65 | 1012.1 |
| 20260507115513 | 58 | 82 | 6.1 | 15.6 | 0.00 | 0.32 | 0.00 | 65 | 1012.1 |
| 20260507115010 | 58 | 162 | 7.8 | 13.0 | 0.00 | 0.32 | 0.00 | 65 | 1012.1 |
| 20260507114518 | 59 | 273 | 6.1 | 14.8 | 0.00 | 0.32 | 0.00 | 63 | 1012.1 |
| 20260507114013 | 59 | 144 | 5.2 | 13.0 | 0.00 | 0.32 | 0.00 | 64 | 1012.0 |
| 20260507113513 | 59 | 159 | 9.6 | 12.2 | 0.00 | 0.32 | 0.00 | 64 | 1012.0 |
| 20260507113013 | 59 | 131 | 9.6 | 18.2 | 0.00 | 0.32 | 0.00 | 62 | 1011.9 |
| 20260507112513 | 60 | 102 | 6.1 | 10.4 | 0.00 | 0.32 | 0.00 | 64 | 1011.9 |
| 20260507112019 | 59 | 122 | 9.6 | 12.2 | 0.00 | 0.32 | 0.00 | 64 | 1011.9 |
| 20260507111512 | 59 | 168 | 7.0 | 13.9 | 0.00 | 0.32 | 0.00 | 62 | 1011.9 |
| 20260507111013 | 59 | 146 | 13.0 | 14.8 | 0.00 | 0.32 | 0.00 | 63 | 1011.9 |
| 20260507110513 | 59 | 167 | 11.3 | 17.4 | 0.00 | 0.32 | 0.00 | 64 | 1011.8 |
| 20260507110010 | 59 | 91 | 6.1 | 13.0 | 0.00 | 0.32 | 0.00 | 65 | 1011.9 |
| 20260507105510 | 58 | 145 | 5.2 | 15.6 | 0.00 | 0.32 | 0.00 | 64 | 1011.8 |
| 20260507105010 | 59 | 152 | 4.3 | 13.9 | 0.00 | 0.32 | 0.00 | 65 | 1011.8 |
| 20260507104518 | 59 | 97 | 6.1 | 17.4 | 0.00 | 0.32 | 0.00 | 65 | 1011.7 |
| 20260507104014 | 59 | 133 | 5.2 | 13.0 | 0.00 | 0.32 | 0.00 | 66 | 1011.7 |
| 20260507103510 | 59 | 154 | 9.6 | 14.8 | 0.00 | 0.32 | 0.00 | 67 | 1011.6 |
| 20260507103013 | 59 | 145 | 7.0 | 12.2 | 0.00 | 0.32 | 0.00 | 67 | 1011.7 |
| 20260507102510 | 59 | 145 | 6.1 | 15.6 | 0.00 | 0.32 | 0.00 | 66 | 1011.6 |
| 20260507102010 | 60 | 120 | 12.2 | 16.5 | 0.00 | 0.32 | 0.00 | 64 | 1011.5 |
| 20260507101512 | 61 | 178 | 7.0 | 11.3 | 0.00 | 0.32 | 0.00 | 66 | 1011.4 |
| 20260507101010 | 60 | 145 | 7.0 | 13.0 | 0.00 | 0.32 | 0.00 | 65 | 1011.4 |
| 20260507100510 | 60 | 157 | 11.3 | 18.2 | 0.00 | 0.32 | 0.00 | 65 | 1011.4 |
| 20260507100013 | 60 | 177 | 6.1 | 12.2 | 0.00 | 0.32 | 0.00 | 66 | 1011.3 |
| 20260507095516 | 59 | 146 | 7.8 | 10.4 | 0.00 | 0.32 | 0.00 | 69 | 1011.3 |
| 20260507095013 | 59 | 131 | 7.8 | 13.0 | 0.00 | 0.32 | 0.00 | 70 | 1011.3 |
| 20260507094511 | 59 | 142 | 5.2 | 12.2 | 0.00 | 0.32 | 0.00 | 68 | 1011.2 |
| 20260507094010 | 59 | 116 | 5.2 | 11.3 | 0.00 | 0.32 | 0.00 | 70 | 1011.2 |
| 20260507093510 | 59 | 178 | 7.0 | 15.6 | 0.00 | 0.32 | 0.00 | 68 | 1011.2 |
| 20260507093010 | 59 | 149 | 10.4 | 16.5 | 0.00 | 0.32 | 0.00 | 69 | 1011.1 |
| 20260507092519 | 59 | 168 | 10.4 | 14.8 | 0.00 | 0.32 | 0.00 | 69 | 1011.1 |
| 20260507092010 | 58 | 162 | 7.0 | 13.0 | 0.00 | 0.32 | 0.00 | 71 | 1011.1 |
| 20260507091511 | 58 | 156 | 6.1 | 13.0 | 0.00 | 0.32 | 0.00 | 70 | 1011.0 |
| 20260507091016 | 58 | 148 | 3.5 | 12.2 | 0.00 | 0.32 | 0.00 | 69 | 1011.0 |
| 20260507090510 | 59 | 115 | 7.0 | 13.0 | 0.00 | 0.32 | 0.00 | 70 | 1010.9 |
| 20260507090010 | 59 | 101 | 7.8 | 12.2 | 0.00 | 0.32 | 0.00 | 70 | 1010.8 |
| 20260507085513 | 59 | 121 | 8.7 | 14.8 | 0.00 | 0.32 | 0.00 | 70 | 1010.8 |
| 20260507085010 | 59 | 136 | 4.3 | 10.4 | 0.00 | 0.32 | 0.00 | 72 | 1010.7 |
| 20260507084511 | 59 | 134 | 7.0 | 14.8 | 0.00 | 0.32 | 0.00 | 73 | 1010.7 |
| 20260507084010 | 58 | 164 | 11.3 | 13.0 | 0.00 | 0.32 | 0.00 | 73 | 1010.7 |
| 20260507083513 | 58 | 205 | 1.7 | 13.0 | 0.00 | 0.32 | 0.00 | 73 | 1010.6 |
| 20260507083013 | 57 | 190 | 7.8 | 13.0 | 0.00 | 0.32 | 0.00 | 74 | 1010.6 |
| 20260507082513 | 58 | 93 | 9.6 | 15.6 | 0.00 | 0.32 | 0.00 | 73 | 1010.6 |
| 20260507082010 | 58 | 155 | 9.6 | 13.0 | 0.00 | 0.32 | 0.00 | 72 | 1010.5 |
| 20260507081521 | 58 | 132 | 10.4 | 14.8 | 0.00 | 0.32 | 0.00 | 73 | 1010.4 |
| 20260507081010 | 58 | 179 | 7.0 | 15.6 | 0.00 | 0.32 | 0.00 | 76 | 1010.3 |
| 20260507080510 | 57 | 149 | 7.8 | 15.6 | 0.00 | 0.32 | 0.00 | 77 | 1010.3 |
| 20260507080016 | 57 | 163 | 7.0 | 17.4 | 0.00 | 0.32 | 0.00 | 76 | 1010.3 |
| 20260507075510 | 57 | 203 | 5.2 | 12.2 | 0.00 | 0.32 | 0.00 | 77 | 1010.3 |
| 20260507075016 | 57 | 147 | 8.7 | 15.6 | 0.00 | 0.32 | 0.00 | 78 | 1010.3 |
| 20260507074512 | 57 | 147 | 6.1 | 15.6 | 0.00 | 0.32 | 0.00 | 79 | 1010.3 |
| 20260507074013 | 57 | 107 | 6.1 | 13.9 | 0.00 | 0.32 | 0.00 | 78 | 1010.3 |
| 20260507073510 | 57 | 170 | 8.7 | 13.0 | 0.00 | 0.32 | 0.00 | 79 | 1010.2 |
| 20260507073010 | 57 | 156 | 11.3 | 15.6 | 0.00 | 0.32 | 0.00 | 79 | 1010.2 |
| 20260507072515 | 57 | 156 | 6.1 | 16.5 | 0.00 | 0.32 | 0.00 | 80 | 1010.2 |
| 20260507072015 | 57 | 128 | 2.6 | 14.8 | 0.00 | 0.32 | 0.00 | 80 | 1010.1 |
| 20260507071516 | 56 | 165 | 6.1 | 13.9 | 0.00 | 0.32 | 0.00 | 81 | 1010.0 |
| 20260507071013 | 56 | 123 | 2.6 | 14.8 | 0.00 | 0.32 | 0.00 | 81 | 1010.0 |
| 20260507070510 | 56 | 88 | 4.3 | 13.0 | 0.00 | 0.32 | 0.00 | 81 | 1010.0 |
| 20260507070019 | 56 | 184 | 9.6 | 10.4 | 0.00 | 0.32 | 0.00 | 83 | 1009.9 |
| 20260507065519 | 56 | 146 | 9.6 | 13.9 | 0.00 | 0.32 | 0.00 | 83 | 1009.8 |
| 20260507065012 | 56 | 127 | 10.4 | 11.3 | 0.00 | 0.32 | 0.00 | 85 | 1009.9 |
| 20260507064510 | 55 | 129 | 3.5 | 13.9 | 0.00 | 0.32 | 0.00 | 86 | 1009.9 |
| 20260507064013 | 55 | 122 | 6.1 | 13.9 | 0.00 | 0.32 | 0.00 | 88 | 1009.8 |
| 20260507063510 | 54 | 110 | 5.2 | 11.3 | 0.00 | 0.32 | 0.00 | 88 | 1009.8 |
| 20260507063013 | 54 | 95 | 7.0 | 8.7 | 0.00 | 0.32 | 0.00 | 89 | 1009.7 |
| 20260507062513 | 54 | 156 | 5.2 | 8.7 | 0.00 | 0.32 | 0.00 | 89 | 1009.7 |
| 20260507062018 | 54 | 106 | 7.0 | 9.6 | 0.00 | 0.32 | 0.00 | 90 | 1009.6 |
| 20260507061513 | 54 | 120 | 5.2 | 8.7 | 0.00 | 0.32 | 0.00 | 90 | 1009.7 |
| 20260507061010 | 53 | 131 | 4.3 | 6.1 | 0.00 | 0.32 | 0.00 | 91 | 1009.6 |
| 20260507060512 | 53 | 127 | 6.1 | 7.8 | 0.00 | 0.32 | 0.00 | 92 | 1009.5 |
| 20260507060013 | 52 | 93 | 4.3 | 5.2 | 0.00 | 0.32 | 0.00 | 92 | 1009.5 |
| 20260507055513 | 52 | 127 | 4.3 | 5.2 | 0.00 | 0.32 | 0.00 | 92 | 1009.5 |
| 20260507055011 | 52 | 111 | 1.7 | 3.5 | 0.00 | 0.32 | 0.00 | 92 | 1009.4 |
| 20260507054510 | 52 | 97 | 1.7 | 4.3 | 0.00 | 0.32 | 0.00 | 92 | 1009.4 |
| 20260507054016 | 52 | 109 | 1.7 | 4.3 | 0.00 | 0.32 | 0.00 | 92 | 1009.4 |
| 20260507053516 | 52 | 52 | 3.5 | 3.5 | 0.00 | 0.32 | 0.00 | 92 | 1009.3 |
| 20260507053013 | 52 | 96 | 3.5 | 5.2 | 0.00 | 0.32 | 0.00 | 92 | 1009.3 |
| 20260507052510 | 52 | 97 | 3.5 | 3.5 | 0.00 | 0.32 | 0.00 | 92 | 1009.3 |
| 20260507052012 | 52 | 96 | 1.7 | 4.3 | 0.00 | 0.32 | 0.00 | 92 | 1009.2 |
| 20260507051510 | 52 | 140 | 0.9 | 6.1 | 0.00 | 0.32 | 0.00 | 92 | 1009.1 |
| 20260507051010 | 52 | 127 | 4.3 | 7.8 | 0.00 | 0.32 | 0.00 | 92 | 1009.1 |
| 20260507050516 | 52 | 160 | 1.7 | 6.1 | 0.00 | 0.32 | 0.00 | 92 | 1009.0 |
| 20260507050013 | 52 | 97 | 3.5 | 5.2 | 0.00 | 0.32 | 0.00 | 92 | 1009.0 |
| 20260507045510 | 52 | 122 | 4.3 | 7.8 | 0.00 | 0.32 | 0.00 | 92 | 1008.9 |
| 20260507045014 | 52 | 101 | 6.1 | 6.1 | 0.00 | 0.32 | 0.00 | 92 | 1008.8 |
| 20260507044513 | 52 | 122 | 2.6 | 9.6 | 0.00 | 0.32 | 0.00 | 92 | 1008.8 |
| 20260507044016 | 52 | 160 | 5.2 | 7.0 | 0.00 | 0.32 | 0.00 | 92 | 1008.8 |
| 20260507043516 | 51 | 158 | 7.8 | 8.7 | 0.00 | 0.32 | 0.00 | 92 | 1008.7 |
| 20260507043016 | 51 | 142 | 5.2 | 6.1 | 0.00 | 0.32 | 0.00 | 92 | 1008.8 |
| 20260507042513 | 51 | 99 | 4.3 | 6.1 | 0.00 | 0.32 | 0.00 | 91 | 1008.7 |
| 20260507042018 | 51 | 135 | 3.5 | 5.2 | 0.00 | 0.32 | 0.00 | 91 | 1008.7 |
| 20260507041513 | 51 | 168 | 3.5 | 6.1 | 0.00 | 0.32 | 0.00 | 91 | 1008.6 |
| 20260507041013 | 51 | 160 | 1.7 | 7.8 | 0.00 | 0.32 | 0.00 | 92 | 1008.5 |
| 20260507040510 | 51 | 164 | 4.3 | 7.0 | 0.00 | 0.32 | 0.00 | 91 | 1008.5 |
| 20260507040019 | 51 | 164 | 3.5 | 6.1 | 0.00 | 0.32 | 0.00 | 91 | 1008.5 |
| 20260507035519 | 51 | 136 | 3.5 | 7.0 | 0.00 | 0.32 | 0.00 | 91 | 1008.5 |
| 20260507035012 | 51 | 137 | 5.2 | 8.7 | 0.00 | 0.32 | 0.00 | 91 | 1008.4 |
| 20260507034516 | 51 | 151 | 5.2 | 8.7 | 0.00 | 0.32 | 0.00 | 91 | 1008.4 |
| 20260507034016 | 51 | 176 | 2.6 | 8.7 | 0.00 | 0.32 | 0.00 | 92 | 1008.4 |
| 20260507033513 | 51 | 171 | 3.5 | 7.8 | 0.00 | 0.32 | 0.00 | 92 | 1008.5 |
| 20260507033010 | 51 | 170 | 4.3 | 9.6 | 0.00 | 0.32 | 0.00 | 92 | 1008.5 |
| 20260507032510 | 51 | 131 | 8.7 | 8.7 | 0.00 | 0.32 | 0.00 | 92 | 1008.4 |
| 20260507032012 | 51 | 122 | 4.3 | 10.4 | 0.00 | 0.32 | 0.00 | 92 | 1008.4 |
| 20260507031513 | 51 | 115 | 3.5 | 7.0 | 0.00 | 0.32 | 0.00 | 92 | 1008.3 |
| 20260507031018 | 51 | 197 | 6.1 | 7.0 | 0.00 | 0.32 | 0.00 | 93 | 1008.4 |
| 20260507030516 | 51 | 174 | 2.6 | 4.3 | 0.00 | 0.32 | 0.00 | 93 | 1008.3 |
| 20260507030010 | 52 | 122 | 2.6 | 5.2 | 0.00 | 0.32 | 0.00 | 93 | 1008.3 |
| 20260507025518 | 52 | 162 | 2.6 | 7.8 | 0.00 | 0.32 | 0.00 | 93 | 1008.2 |
| 20260507025010 | 52 | 222 | 4.3 | 7.8 | 0.00 | 0.32 | 0.00 | 93 | 1008.1 |
| 20260507024510 | 52 | 204 | 0.9 | 9.6 | 0.00 | 0.32 | 0.00 | 93 | 1008.1 |
| 20260507024010 | 52 | 197 | 0.9 | 8.7 | 0.00 | 0.32 | 0.00 | 94 | 1008.2 |
| 20260507023510 | 52 | 145 | 1.7 | 8.7 | 0.00 | 0.32 | 0.00 | 94 | 1008.1 |
| 20260507023016 | 52 | 154 | 7.0 | 7.0 | 0.00 | 0.32 | 0.00 | 94 | 1008.2 |
| 20260507022512 | 52 | 135 | 4.3 | 9.6 | 0.00 | 0.32 | 0.00 | 94 | 1008.2 |
| 20260507022010 | 52 | 171 | 4.3 | 9.6 | 0.00 | 0.32 | 0.00 | 94 | 1008.2 |
| 20260507021510 | 52 | 163 | 6.1 | 8.7 | 0.00 | 0.32 | 0.00 | 94 | 1008.1 |
| 20260507021010 | 52 | 173 | 6.1 | 7.8 | 0.00 | 0.32 | 0.00 | 94 | 1008.1 |
| 20260507020510 | 52 | 135 | 6.1 | 8.7 | 0.00 | 0.32 | 0.00 | 94 | 1008.1 |
| 20260507020013 | 52 | 172 | 8.7 | 8.7 | 0.00 | 0.32 | 0.00 | 94 | 1008.1 |
| 20260507015514 | 52 | 145 | 6.1 | 6.1 | 0.00 | 0.32 | 0.00 | 94 | 1008.1 |
| 20260507015010 | 52 | 127 | 6.1 | 7.0 | 0.00 | 0.32 | 0.00 | 94 | 1008.0 |
| 20260507014510 | 53 | 177 | 4.3 | 7.0 | 0.00 | 0.32 | 0.00 | 94 | 1007.9 |
| 20260507014013 | 53 | 127 | 5.2 | 7.0 | 0.00 | 0.32 | 0.00 | 94 | 1008.0 |
| 20260507013513 | 53 | 162 | 3.5 | 7.8 | 0.00 | 0.32 | 0.00 | 94 | 1008.0 |
| 20260507013013 | 53 | 168 | 3.5 | 9.6 | 0.00 | 0.32 | 0.00 | 94 | 1007.9 |
| 20260507012514 | 53 | 127 | 5.2 | 9.6 | 0.00 | 0.32 | 0.00 | 94 | 1008.0 |
| 20260507012010 | 53 | 160 | 4.3 | 7.0 | 0.00 | 0.32 | 0.00 | 94 | 1007.9 |
| 20260507011513 | 53 | 172 | 2.6 | 7.0 | 0.00 | 0.32 | 0.00 | 94 | 1007.8 |
| 20260507011013 | 54 | 137 | 5.2 | 5.2 | 0.00 | 0.32 | 0.00 | 94 | 1007.7 |
| 20260507010516 | 54 | 148 | 4.3 | 5.2 | 0.00 | 0.32 | 0.00 | 94 | 1007.7 |
| 20260507010010 | 54 | 164 | 1.7 | 4.3 | 0.00 | 0.32 | 0.00 | 94 | 1007.7 |
| 20260507005511 | 54 | 176 | 4.3 | 6.1 | 0.00 | 0.32 | 0.00 | 94 | 1007.7 |
| 20260507005016 | 54 | 167 | 2.6 | 3.5 | 0.00 | 0.32 | 0.00 | 94 | 1007.7 |
| 20260507004516 | 54 | 145 | 1.7 | 4.3 | 0.00 | 0.32 | 0.00 | 94 | 1007.7 |
| 20260507004013 | 54 | 151 | 1.7 | 6.1 | 0.00 | 0.32 | 0.00 | 94 | 1007.7 |
| 20260507003513 | 54 | 136 | 2.6 | 6.1 | 0.00 | 0.32 | 0.00 | 94 | 1007.6 |
| 20260507003016 | 55 | 136 | 4.3 | 7.0 | 0.00 | 0.32 | 0.00 | 94 | 1007.6 |
| 20260507002512 | 55 | 168 | 1.7 | 5.2 | 0.00 | 0.32 | 0.00 | 93 | 1007.6 |
| 20260507002016 | 55 | 180 | 2.6 | 7.0 | 0.00 | 0.32 | 0.00 | 94 | 1007.6 |
| 20260507001510 | 55 | 142 | 3.5 | 7.8 | 0.00 | 0.32 | 0.00 | 94 | 1007.6 |
| 20260507001010 | 55 | 166 | 6.1 | 7.0 | 0.00 | 0.32 | 0.00 | 94 | 1007.4 |
| 20260507000510 | 55 | 137 | 4.3 | 7.0 | 0.00 | 0.32 | 0.00 | 94 | 1007.2 |
| 20260507000016 | 55 | 184 | 4.3 | 4.3 | 0.00 | 0.32 | 0.00 | 94 | 1007.3 |
| 20260506235511 | 55 | 154 | 1.7 | 3.5 | 0.00 | 0.32 | 0.00 | 94 | 1007.2 |
| 20260506235010 | 55 | 165 | 0.9 | 3.5 | 0.00 | 0.32 | 0.00 | 94 | 1007.2 |
| 20260506234510 | 55 | 176 | 0.9 | 2.6 | 0.00 | 0.32 | 0.00 | 94 | 1007.2 |
| 20260506234013 | 55 | 155 | 0.9 | 3.5 | 0.00 | 0.32 | 0.00 | 94 | 1007.3 |
| 20260506233510 | 55 | 153 | 3.5 | 4.3 | 0.00 | 0.32 | 0.00 | 94 | 1007.4 |
| 20260506233013 | 55 | 178 | 2.6 | 4.3 | 0.00 | 0.32 | 0.00 | 93 | 1007.3 |
| 20260506232515 | 55 | 145 | 3.5 | 6.1 | 0.00 | 0.32 | 0.00 | 94 | 1007.2 |
| 20260506232013 | 55 | 162 | 2.6 | 6.1 | 0.00 | 0.32 | 0.00 | 94 | 1007.2 |
| 20260506231513 | 55 | 156 | 5.2 | 7.0 | 0.00 | 0.32 | 0.00 | 94 | 1007.2 |
| 20260506231016 | 54 | 162 | 5.2 | 7.0 | 0.00 | 0.32 | 0.00 | 94 | 1007.2 |
| 20260506230510 | 54 | 158 | 4.3 | 6.1 | 0.00 | 0.32 | 0.00 | 94 | 1007.2 |
| 20260506230013 | 54 | 153 | 1.7 | 5.2 | 0.00 | 0.32 | 0.00 | 94 | 1007.2 |
| 20260506225511 | 54 | 152 | 3.5 | 6.1 | 0.00 | 0.32 | 0.00 | 94 | 1007.3 |
| 20260506225013 | 54 | 171 | 4.3 | 7.0 | 0.00 | 0.32 | 0.00 | 94 | 1007.4 |
| 20260506224513 | 54 | 180 | 4.3 | 7.0 | 0.00 | 0.32 | 0.00 | 94 | 1007.4 |
| 20260506224016 | 55 | 138 | 4.3 | 6.1 | 0.00 | 0.32 | 0.00 | 94 | 1007.4 |
| 20260506223510 | 55 | 168 | 2.6 | 5.2 | 0.00 | 0.33 | 0.00 | 94 | 1007.3 |
| 20260506223016 | 55 | 170 | 2.6 | 5.2 | 0.00 | 0.33 | 0.00 | 94 | 1007.4 |
| 20260506222512 | 55 | 184 | 2.6 | 5.2 | 0.00 | 0.34 | 0.00 | 94 | 1007.3 |
| 20260506222016 | 55 | 166 | 4.3 | 5.2 | 0.00 | 0.35 | 0.00 | 94 | 1007.3 |
| 20260506221513 | 55 | 135 | 2.6 | 4.3 | 0.01 | 0.36 | 0.00 | 94 | 1007.3 |
| 20260506221010 | 55 | 126 | 1.7 | 4.3 | 0.02 | 0.37 | 0.00 | 93 | 1007.2 |
| 20260506220513 | 55 | 87 | 3.5 | 5.2 | 0.03 | 0.37 | 0.00 | 93 | 1007.1 |
| 20260506220016 | 55 | 68 | 1.7 | 4.3 | 0.06 | 0.37 | 0.00 | 93 | 1007.1 |
| 20260506215511 | 55 | 81 | 3.5 | 5.2 | 0.07 | 0.39 | 0.00 | 93 | 1007.2 |
| 20260506215013 | 55 | 95 | 3.5 | 4.3 | 0.08 | 0.40 | 0.00 | 93 | 1007.2 |
| 20260506214513 | 55 | 80 | 4.3 | 6.1 | 0.08 | 0.40 | 0.00 | 93 | 1007.2 |
| 20260506214013 | 55 | 64 | 5.2 | 5.2 | 0.09 | 0.42 | 0.00 | 93 | 1007.1 |
| 20260506213510 | 55 | 72 | 3.5 | 5.2 | 0.11 | 0.45 | 0.00 | 92 | 1007.1 |
| 20260506213013 | 55 | 66 | 1.7 | 7.0 | 0.11 | 0.46 | 0.00 | 92 | 1006.9 |
| 20260506212517 | 55 | 94 | 4.3 | 6.1 | 0.11 | 0.47 | 0.00 | 92 | 1007.1 |
| 20260506212010 | 54 | 120 | 5.2 | 7.0 | 0.11 | 0.48 | 0.00 | 92 | 1007.1 |
| 20260506211510 | 54 | 81 | 4.3 | 5.2 | 0.10 | 0.48 | 0.00 | 92 | 1007.0 |
| 20260506211010 | 54 | 91 | 3.5 | 6.1 | 0.09 | 0.48 | 0.00 | 92 | 1007.1 |
| 20260506210513 | 54 | 106 | 4.3 | 7.0 | 0.08 | 0.46 | 0.00 | 92 | 1007.1 |
| 20260506210010 | 54 | 90 | 6.1 | 7.0 | 0.10 | 0.44 | 0.00 | 91 | 1007.2 |
| 20260506205511 | 54 | 104 | 4.3 | 8.7 | 0.11 | 0.43 | 0.00 | 91 | 1007.3 |
| 20260506205010 | 54 | 120 | 7.0 | 8.7 | 0.11 | 0.46 | 0.00 | 91 | 1007.2 |
| 20260506204510 | 55 | 118 | 4.3 | 8.7 | 0.12 | 0.48 | 0.00 | 91 | 1007.2 |
| 20260506204010 | 55 | 128 | 7.0 | 11.3 | 0.11 | 0.47 | 0.00 | 91 | 1007.3 |
| 20260506203513 | 56 | 129 | 4.3 | 11.3 | 0.11 | 0.46 | 0.00 | 91 | 1007.4 |
| 20260506203010 | 56 | 101 | 1.7 | 7.8 | 0.10 | 0.45 | 0.00 | 90 | 1007.3 |
| 20260506202514 | 57 | 140 | 6.1 | 7.8 | 0.11 | 0.45 | 0.00 | 90 | 1007.2 |
| 20260506202013 | 57 | 143 | 5.2 | 7.8 | 0.11 | 0.45 | 0.00 | 89 | 1006.8 |
| 20260506201516 | 57 | 104 | 2.6 | 5.2 | 0.13 | 0.45 | 0.00 | 88 | 1006.5 |
| 20260506201010 | 57 | 35 | 4.3 | 6.1 | 0.18 | 0.45 | 0.00 | 87 | 1006.2 |
| 20260506200510 | 57 | 44 | 1.7 | 5.2 | 0.18 | 0.44 | 0.00 | 87 | 1005.9 |
| 20260506200010 | 57 | 353 | 0.9 | 4.3 | 0.14 | 0.40 | 0.00 | 87 | 1006.0 |
| 20260506195514 | 57 | 314 | 3.5 | 3.5 | 0.11 | 0.37 | 0.00 | 87 | 1005.9 |
| 20260506195010 | 57 | 287 | 2.6 | 4.3 | 0.11 | 0.37 | 0.00 | 87 | 1006.0 |
| 20260506194516 | 57 | 287 | 2.6 | 4.3 | 0.09 | 0.36 | 0.00 | 87 | 1006.1 |
| 20260506194019 | 57 | 257 | 3.5 | 4.3 | 0.09 | 0.36 | 0.00 | 87 | 1006.1 |
| 20260506193513 | 57 | 271 | 2.6 | 5.2 | 0.08 | 0.35 | 0.00 | 86 | 1006.0 |
| 20260506193012 | 58 | 295 | 2.6 | 7.8 | 0.08 | 0.35 | 0.00 | 85 | 1005.8 |
| 20260506192510 | 58 | 249 | 4.3 | 6.1 | 0.07 | 0.34 | 0.00 | 84 | 1005.8 |
| 20260506192010 | 59 | 277 | 3.5 | 5.2 | 0.07 | 0.34 | 0.00 | 82 | 1006.1 |
| 20260506191513 | 60 | 255 | 1.7 | 4.3 | 0.05 | 0.32 | 0.00 | 80 | 1006.3 |
| 20260506191010 | 60 | 266 | 2.6 | 5.2 | 0.00 | 0.27 | 0.00 | 79 | 1006.1 |
| 20260506190517 | 60 | 243 | 1.7 | 3.5 | 0.00 | 0.26 | 0.00 | 79 | 1006.0 |
| 20260506190010 | 60 | 8 | 1.7 | 5.2 | 0.00 | 0.26 | 0.00 | 78 | 1005.7 |
| 20260506185510 | 60 | 269 | 1.7 | 4.3 | 0.00 | 0.26 | 0.00 | 78 | 1005.7 |
| 20260506185013 | 60 | 301 | 2.6 | 2.6 | 0.00 | 0.26 | 0.00 | 78 | 1005.6 |
| 20260506184510 | 60 | 316 | 0.9 | 2.6 | 0.00 | 0.26 | 0.00 | 77 | 1005.6 |
| 20260506184010 | 60 | 10 | 0.9 | 1.7 | 0.00 | 0.26 | 0.00 | 77 | 1005.6 |
| 20260506183511 | 60 | 328 | 0.0 | 2.6 | 0.00 | 0.26 | 0.00 | 76 | 1005.3 |
| 20260506183013 | 61 | 328 | 1.7 | 1.7 | 0.00 | 0.26 | 0.00 | 76 | 1005.2 |
| 20260506182513 | 61 | 328 | 0.9 | 1.7 | 0.00 | 0.26 | 0.00 | 76 | 1005.0 |
| 20260506182010 | 61 | 328 | 1.7 | 4.3 | 0.00 | 0.26 | 0.00 | 75 | 1004.9 |
| 20260506181513 | 61 | 351 | 1.7 | 4.3 | 0.00 | 0.26 | 0.00 | 75 | 1004.8 |